Geneva, Switzerland

12:09 PM CET on January 22, 2018 (GMT +0100)
Cointrin

Weather History for LSGG - December, 2012

Change the Weather History Date:

Sunday, December 23, 2012

  Actual Average Record
Temperature  
Mean Temperature 46 °F -  
Max Temperature 55 °F 38 °F 55 °F (2012)
Min Temperature 37 °F 28 °F 17 °F (1998)
Degree Days  
Heating Degree Days 19    
Moisture  
Dew Point 43 °F    
Average Humidity 89    
Maximum Humidity 100    
Minimum Humidity 65    
Precipitation  
Precipitation 0.00 in 0.10 in - ()
Sea Level Pressure  
Sea Level Pressure 30.14 in    
Wind  
Wind Speed 5 mph ()    
Max Wind Speed 12 mph    
Max Gust Speed -    
Visibility 6.8 miles    
Events Fog , Rain    
Averages and records for this station are not official NWS values.
T = Trace of Precipitation, MM = Missing Value Source: Averaged Metar Reports

Daily Weather History Graph

Daily Weather History Graph

Search for Another Location

Airport or City:

Trip Planner

Search our weather history database for the weather conditions in past years. The results will help you decide how hot, cold, wet, or windy it might be!

Date:

Astronomy

Dec. 23, 2012 Rise Set
Actual Time 8:16 AM CET 4:53 PM CET
Civil Twilight 7:41 AM CET 5:27 PM CET
Nautical Twilight 7:03 AM CET 6:06 PM CET
Astronomical Twilight 6:26 AM CET 6:42 PM CET
Moon 1:42 PM CET (12/23) 3:35 AM CET (12/23)
Length of Visible Light 9h 46m
Length of Day
8h 36m
Waxing Gibbous, 79% of the Moon is Illuminated
Dec 23
Waxing Gibbous
Dec 28
Full
Jan 5
Last Quarter
Jan 11
New
Jan 19
First Quarter

Hourly Weather History & Observations

Time (CET) Temp. Windchill Dew Point Humidity Pressure Visibility Wind Dir Wind Speed Gust Speed Precip Events Conditions
12:00 AM 43 °F - 40 °F 87% 30.16 in - SW 11.5 mph - -  
12:20 AM 42.8 °F 39.3 °F 41.0 °F 93% 30.12 in 6.2 mi SW 5.8 mph - N/A Rain Light Rain
12:50 AM 42.8 °F 37.0 °F 41.0 °F 93% 30.12 in 6.2 mi SW 10.4 mph - N/A Rain Light Rain
1:00 AM 43 °F - 41 °F 91% 30.15 in 12 mi WSW 10.4 mph - - Rain Light Rain
1:20 AM 42.8 °F 38.6 °F 41.0 °F 93% 30.12 in 6.2 mi SW 6.9 mph - N/A   Overcast
1:50 AM 44.6 °F 39.7 °F 42.8 °F 93% 30.12 in 6.2 mi WSW 9.2 mph - N/A   Mostly Cloudy
2:00 AM 44 °F - 42 °F 89% 30.16 in - WSW 9.2 mph - -  
2:50 AM 44.6 °F 40.7 °F 42.8 °F 93% 30.15 in 6.2 mi SW 6.9 mph - N/A   Mostly Cloudy
3:00 AM 44 °F - 42 °F 89% 30.18 in - SW 9.2 mph - -  
3:20 AM 44.6 °F 40.2 °F 42.8 °F 93% 30.15 in 5.6 mi SW 8.1 mph - N/A Rain Light Rain
3:50 AM 44.6 °F 41.4 °F 42.8 °F 93% 30.15 in 6.2 mi SW 5.8 mph - N/A Rain Light Rain
4:20 AM 44.6 °F 42.2 °F 42.8 °F 93% 30.15 in 6.2 mi SW 4.6 mph - N/A   Mostly Cloudy
4:50 AM 42.8 °F 39.3 °F 41.0 °F 93% 30.15 in 6.2 mi WSW 5.8 mph - N/A   Mostly Cloudy
5:00 AM 43 °F - 42 °F 92% 30.20 in - WSW 6.9 mph - -  
5:20 AM 42.8 °F 40.1 °F 42.8 °F 100% 30.15 in 6.2 mi WSW 4.6 mph - N/A   Mostly Cloudy
5:50 AM 42.8 °F 41.1 °F 42.8 °F 100% 30.15 in 6.2 mi South 3.5 mph - N/A   Mostly Cloudy
6:00 AM 46 °F - 43 °F 86% 30.20 in - SE 3.5 mph - -  
6:20 AM 44.6 °F - 44.6 °F 100% 30.15 in 6.2 mi Variable 2.3 mph - N/A   Mostly Cloudy
6:50 AM 44.6 °F - 42.8 °F 93% 30.15 in 6.2 mi Variable 1.2 mph - N/A   Mostly Cloudy
7:00 AM 46 °F - 43 °F 87% 30.19 in 19 mi ENE 1.2 mph - -   Partly Cloudy
7:20 AM 44.6 °F 43.1 °F 44.6 °F 100% 30.15 in 6.2 mi Variable 3.5 mph - N/A   Mostly Cloudy
7:50 AM 44.6 °F - 42.8 °F 93% 30.15 in 6.2 mi Variable 2.3 mph - N/A   Mostly Cloudy
8:00 AM 44 °F - 43 °F 97% 30.20 in - SW 2.3 mph - -  
8:20 AM 44.6 °F - 42.8 °F 93% 30.15 in 6.2 mi Calm Calm - N/A   Overcast
8:50 AM 44.6 °F - 42.8 °F 93% 30.18 in 6.2 mi Variable 1.2 mph - N/A   Mostly Cloudy
9:00 AM 44 °F - 43 °F 94% 30.20 in - WSW 1.2 mph - -  
9:20 AM 44.6 °F - 42.8 °F 93% 30.15 in 6.2 mi Variable 2.3 mph - N/A   Overcast
9:50 AM 44.6 °F - 44.6 °F 100% 30.15 in 6.2 mi WNW 2.3 mph - N/A   Overcast
10:20 AM 46.4 °F - 44.6 °F 93% 30.15 in 6.2 mi Variable 1.2 mph - N/A   Overcast
10:50 AM 48.2 °F - 46.4 °F 93% 30.15 in 6.2 mi Variable 2.3 mph - N/A   Overcast
11:00 AM 49 °F - 45 °F 80% 30.17 in - WSW 2.3 mph - -  
11:20 AM 50.0 °F - 44.6 °F 82% 30.15 in 6.2 mi Variable 1.2 mph - N/A   Overcast
11:50 AM 50.0 °F - 46.4 °F 87% 30.15 in - South 4.6 mph - N/A   Clear
12:00 PM 50 °F - 44 °F 74% 30.17 in - SW 4.6 mph - -  
12:20 PM 51.8 °F - 46.4 °F 82% 30.15 in - Variable 2.3 mph - N/A   Clear
12:50 PM 51.8 °F - 46.4 °F 82% 30.12 in - WSW 4.6 mph - N/A   Clear
1:00 PM 52 °F - 46 °F 73% 30.14 in 31 mi WSW 3.5 mph - -   Overcast
1:20 PM 53.6 °F - 48.2 °F 82% 30.12 in - Variable 2.3 mph - N/A   Clear
1:50 PM 55.4 °F - 48.2 °F 77% 30.12 in - SW 4.6 mph - N/A   Clear
2:00 PM 54 °F - 46 °F 67% 30.11 in - SW 5.8 mph - -  
2:20 PM 55.4 °F - 48.2 °F 77% 30.09 in - SW 5.8 mph - N/A   Clear
2:50 PM 55.4 °F - 48.2 °F 77% 30.09 in - WSW 3.5 mph - N/A   Clear
3:00 PM 55 °F - 47 °F 65% 30.10 in - SW 5.8 mph - -  
3:20 PM 55.4 °F - 48.2 °F 77% 30.09 in - SW 4.6 mph - N/A   Clear
3:50 PM 55.4 °F - 46.4 °F 72% 30.09 in - SW 4.6 mph - N/A   Clear
4:20 PM 53.6 °F - 46.4 °F 77% 30.09 in - SSW 4.6 mph - N/A   Clear
4:50 PM 51.8 °F - 46.4 °F 82% 30.09 in - SSW 3.5 mph - N/A   Clear
5:00 PM 50 °F - 45 °F 78% 30.12 in - SSW 3.5 mph - -  
5:20 PM 50.0 °F - 46.4 °F 87% 30.12 in - WSW 2.3 mph - N/A   Clear
5:50 PM 48.2 °F - 44.6 °F 87% 30.12 in - WSW 2.3 mph - N/A   Clear
6:00 PM 47 °F - 44 °F 85% 30.14 in - West 1.2 mph - -  
6:20 PM 44.6 °F - 42.8 °F 93% 30.12 in - Calm Calm - N/A   Clear
6:50 PM 44.6 °F - 42.8 °F 93% 30.12 in - Calm Calm - N/A   Clear
7:00 PM 44 °F - 42 °F 92% 30.16 in 31 mi North 2.3 mph - -   Clear
7:20 PM 42.8 °F - 42.8 °F 100% 30.12 in - Calm Calm - N/A   Clear
7:50 PM 42.8 °F - 42.8 °F 100% 30.12 in - NW 1.2 mph - N/A   Clear
8:00 PM 43 °F - 41 °F 90% 30.17 in - NW 2.3 mph - -  
8:20 PM 42.8 °F - 41.0 °F 93% 30.12 in - Variable 1.2 mph - N/A   Clear
8:50 PM 42.8 °F - 41.0 °F 93% 30.12 in - Variable 1.2 mph - N/A   Clear
9:00 PM 42 °F - 40 °F 92% 30.18 in - WNW 1.2 mph - -  
9:20 PM 41.0 °F - 41.0 °F 100% 30.12 in - Variable 1.2 mph - N/A   Clear
9:50 PM 41.0 °F - 39.2 °F 93% 30.12 in - Variable 2.3 mph - N/A   Clear
10:20 PM 39.2 °F - 39.2 °F 100% 30.12 in 6.2 mi Variable 2.3 mph - N/A Fog Shallow Fog
10:50 PM 39.2 °F - 37.4 °F 93% 30.12 in 6.2 mi Calm Calm - N/A Fog Shallow Fog
11:00 PM 39 °F - 38 °F 94% 30.18 in - NNE 1.2 mph - -  
11:21 PM 37.4 °F - 37.4 °F 100% 30.12 in 6.2 mi Variable 2.3 mph - N/A   Unknown
11:50 PM 37.4 °F - 37.4 °F 100% 30.12 in 6.2 mi Variable 1.2 mph - N/A   Unknown